Location: Little Arabia
(41.4620°N, 81.7687°W)
Time: 19:49:07
(UTC+00:00)

SMAP - Pass Details

Date: 29 October 2020
Orbit: 681 x 683 km, 98.1° (Epoch: 03 December)

Event Time Altitude Azimuth Distance (km) Brightness Sun altitude
Rises 22:54:41 0° 168° (SSE) 3,031 6.4 -6.2°
Reaches altitude 10° 22:56:54 10° 169° (S) 2,120 5.6 -6.6°
Maximum altitude 23:01:33 82° 257° (WSW) 695 3.2 -7.4°
Drops below altitude 10° 23:06:14 10° 345° (NNW) 2,135 5.7 -8.3°
Sets 23:08:29 0° 347° (NNW) 3,055 6.5 -8.7°
